Location: Campolattaro
(41.2833°N, 14.7333°E)
Time: 07:35:27
(UTC+00:00)

Cosmos 1536 - Pass Details

Date: 19 May 2025
Orbit: 494 x 518 km, 82.5° (Epoch: 22 June)

Event Time Altitude Azimuth Distance (km) Brightness Sun altitude
Rises 21:33:49 0° 346° (NNW) 2,633 7.6 -25.7°
Reaches altitude 10° 21:36:00 10° 340° (NNW) 1,737 6.4 -25.9°
Enters shadow 21:38:50 39° 305° (NW) 776 3.9 -26.1°
